Wind_Speed
8 3 2 20 17 17 17 21 24 23 22 23 25 22 16 11 9 10 12 14 15 16 15 14 14 16 15 15 15 17 16 14 20 13 20 22 22 23 24 27 32 30 35
10 3 3 11 9 16 16 18 21 20 23 22 22 23 18 11 7 6 10 14 15 16 15 14 13 11 13 12 12 16 15 16 15 14 13 18 19 20 23 25 26 29 30
10 6 4 7 13 16 7 12 14 21 23 21 21 23 19 15 7 7 12 14 16 18 18 15 14 11 9 10 8 11 12 11 12 12 16 12 12 16 20 20 24 26 26
12 11 4 5 13 15 4 3 12 17 20 22 22 22 23 18 10 9 10 13 15 17 17 15 13 11 10 13 11 10 10 11 9 12 12 12 13 13 16 17 20 20 22
14 11 9 4 3 12 4 1 13 16 18 25 20 22 28 23 20 14 12 13 14 15 16 16 13 13 12 12 12 13 15 14 10 6 11 10 10 15 17 16 21 22 18
18 15 9 6 1 8 3 3 13 14 22 25 18 21 27 23 22 17 15 13 12 16 16 18 16 15 12 11 14 18 17 19 18 15 12 13 13 17 18 20 23 23 24
19 17 14 10 5 5 6 4 7 15 19 21 19 18 22 22 21 17 13 13 13 13 12 13 14 15 15 14 16 20 28 29 22 17 15 21 22 20 16 20 23 21 20
21 22 15 8 9 9 9 3 4 13 19 18 16 13 19 20 19 17 16 15 16 13 10 10 12 13 12 14 16 19 16 20 22 27 19 19 18 21 16 11 12 18 20
21 19 19 12 10 9 7 10 4 13 14 15 15 14 14 13 17 20 21 23 25 19 11 10 12 14 12 12 15 16 11 19 19 18 12 11 12 12 11 12 14 16 18
26 21 22 19 9 20 14 17 6 5 11 12 11 12 13 11 15 17 21 22 25 29 16 13 15 13 14 12 11 13 10 10 16 18 15 9 6 6 9 7 13 18 25
35 28 26 25 16 18 22 14 10 13 5 5 9 9 10 14 14 13 17 19 21 23 23 17 14 17 15 12 7 10 11 11 13 13 15 15 12 13 12 11 14 16 17
39 34 33 28 25 28 27 25 12 11 6 1 4 7 5 12 14 11 10 14 18 18 20 22 15 14 13 12 11 10 11 10 12 14 16 18 18 17 14 11 11 15 16
40 40 37 34 30 31 21 28 23 19 7 4 2 6 3 10 15 9 6 10 14 17 17 19 22 20 16 13 13 13 14 14 14 14 16 19 21 16 16 17 16 15 15
43 41 40 37 33 36 27 23 25 19 15 8 9 4 8 9 13 16 8 7 11 15 16 17 20 23 23 19 19 18 21 23 21 18 18 16 15 18 21 21 18 18 17
45 45 44 43 37 41 33 23 27 23 20 13 18 10 14 14 14 15 14 10 7 11 16 17 17 19 22 23 23 20 18 19 22 21 22 21 21 21 25 24 23 18 18
49 49 48 47 43 42 42 39 29 24 26 19 17 15 15 19 14 13 18 13 12 10 13 17 18 19 21 23 25 26 26 21 21 23 24 25 21 21 20 17 18 18 29
51 52 52 51 48 44 43 45 41 28 29 23 19 15 20 19 12 16 20 13 12 11 15 16 17 19 22 20 26 25 28 26 29 27 20 24 20 20 20 18 21 26 33
55 55 56 54 52 49 46 46 46 45 30 27 26 26 25 21 13 19 18 12 9 12 15 16 19 20 21 21 21 23 27 23 28 29 23 23 23 19 22 26 28 31 37
47 55 60 59 57 54 51 45 48 47 46 38 34 27 25 19 17 19 17 12 9 15 18 20 20 21 22 19 23 26 28 31 27 23 25 20 22 26 25 33 39 42 37
28 43 55 60 62 58 55 44 45 47 47 43 33 28 24 26 20 21 19 13 13 16 20 22 18 21 22 21 24 24 26 33 26 27 13 28 30 35 37 42 45 44 34
22 29 40 49 57 65 61 57 50 48 47 43 38 28 30 27 22 21 21 19 17 17 20 23 18 22 22 23 22 30 24 25 36 30 28 37 39 38 41 43 34 34 31
20 25 30 36 44 53 58 58 51 53 47 50 48 42 36 30 26 24 20 25 21 18 19 20 19 22 19 20 28 31 28 27 29 38 35 38 41 42 35 27 21 22 27
14 18 24 28 33 40 49 53 58 55 52 43 49 42 42 38 36 26 24 25 24 18 19 21 22 19 21 23 31 32 32 33 40 41 45 39 34 32 30 23 24 18 21
13 11 15 18 24 29 35 40 47 55 51 56 41 45 36 31 33 24 24 27 24 17 22 22 19 22 23 28 31 34 32 38 44 46 45 39 31 27 27 32 29 27 31
13 13 11 14 16 24 27 30 35 51 51 52 56 44 48 29 30 27 25 21 20 18 23 18 23 21 24 30 32 35 37 41 44 45 38 30 32 35 35 35 33 32 30
16 13 13 12 13 21 24 28 30 35 41 52 50 46 47 34 28 25 23 18 17 19 22 22 20 20 26 31 36 35 40 42 39 36 33 31 34 34 31 31 30 31 28
Wind_Direction
126 92 160 39 50 65 75 59 54 51 49 46 50 57 66 84 74 66 56 47 40 38 43 40 41 41 48 53 55 52 63 56 60 27 35 42 47 54 63 66 63 57 60
174 139 212 4 13 45 70 63 50 53 52 50 53 43 54 64 73 50 39 32 34 29 24 21 24 31 45 50 60 49 49 53 46 51 36 42 51 55 54 66 59 58 59
165 148 231 349 61 38 99 52 51 55 49 50 53 52 42 47 63 48 38 32 28 21 11 9 16 24 37 38 47 45 48 38 36 54 48 38 35 55 56 56 57 51 53
183 182 186 258 7 33 127 46 67 58 55 55 54 52 41 41 38 37 27 22 18 23 22 18 24 28 32 42 42 30 30 9 23 41 49 44 59 65 59 55 44 52 45
197 197 156 180 353 352 50 258 85 66 66 55 57 52 50 51 59 62 55 50 39 28 29 31 34 42 42 47 34 28 29 24 38 53 48 35 45 41 71 57 48 46 50
208 191 201 185 216 339 126 205 90 74 66 46 67 59 55 61 56 72 71 60 47 30 33 36 39 42 40 31 28 42 38 58 60 47 16 354 40 75 65 61 45 33 41
211 207 207 213 274 335 204 230 60 77 72 58 50 66 54 56 50 57 56 51 37 28 33 33 37 37 40 41 38 48 80 65 59 42 53 94 93 77 69 63 47 36 29
213 214 210 189 140 39 231 264 86 70 58 52 37 59 56 54 46 42 43 37 27 16 34 40 29 28 33 45 46 70 85 53 68 68 71 78 74 60 66 47 28 26 24
214 208 214 199 168 160 183 246 286 44 46 54 67 44 37 42 41 52 51 51 44 33 18 37 33 37 44 54 55 72 73 69 75 50 61 71 83 67 63 49 27 17 14
221 216 213 211 162 278 222 229 264 313 49 78 36 23 13 45 35 46 62 52 48 42 38 28 36 45 42 48 56 65 70 30 36 33 18 38 26 15 40 26 40 26 27
222 221 219 214 207 171 167 215 241 280 308 73 31 15 5 19 25 36 56 44 44 47 41 36 41 49 41 38 35 24 25 19 4 9 20 20 3 358 346 357 356 356 339
222 223 220 214 200 175 182 204 237 252 276 325 24 12 345 6 24 28 51 48 35 39 37 35 37 42 39 31 26 20 7 354 340 349 349 344 349 342 318 344 343 348 347
223 224 221 215 209 205 214 213 222 234 261 259 297 342 277 10 358 9 40 42 33 31 30 21 22 24 15 9 8 359 0 353 342 338 337 340 347 349 347 350 339 345 341
221 222 217 215 211 209 211 210 207 212 223 236 251 272 236 337 343 340 326 14 30 12 23 15 12 14 6 1 6 8 1 4 3 1 359 1 7 352 348 347 339 339 336
221 222 220 217 218 209 207 217 217 225 208 218 236 221 239 283 318 321 325 300 7 356 0 5 7 5 0 26 16 11 9 10 2 358 357 353 343 341 338 338 341 337 332
224 221 219 219 220 213 214 214 217 229 232 216 206 224 258 266 292 313 309 290 294 326 340 344 354 356 360 18 5 14 6 0 352 345 340 338 332 326 323 334 335 336 332
225 223 221 219 217 218 223 226 227 227 223 210 206 234 274 246 274 310 302 291 292 318 327 330 336 339 356 6 1 359 358 3 354 331 340 335 326 319 317 317 333 331 319
229 225 223 220 221 225 224 228 229 228 222 231 250 250 259 244 270 300 295 274 304 328 330 327 328 339 338 349 4 358 344 334 349 329 318 328 321 325 330 330 323 319 317
228 231 227 226 224 226 227 231 233 232 228 232 244 243 246 228 257 285 283 268 291 319 324 323 323 333 331 347 355 351 352 350 336 327 318 321 319 319 318 318 316 311 302
234 229 230 229 227 230 233 228 227 231 231 232 235 220 238 241 246 264 272 247 293 310 317 318 325 331 334 342 348 342 343 323 332 335 315 329 324 318 313 314 320 313 311
237 237 232 230 229 228 231 230 226 225 228 228 226 224 237 239 244 246 258 267 282 307 309 309 323 329 337 344 339 333 341 338 332 326 316 314 317 316 318 318 316 305 302
225 235 236 232 230 227 227 227 224 225 221 227 228 234 232 236 248 243 258 270 283 296 301 304 316 324 324 333 324 335 336 335 320 332 332 328 322 322 322 321 319 317 316
224 237 243 236 230 226 226 226 222 225 222 216 227 229 236 235 234 237 257 266 280 285 293 304 310 320 327 320 334 333 331 334 337 336 338 327 323 316 316 300 306 309 310
218 235 243 232 225 222 224 224 223 223 220 220 222 216 219 228 222 239 254 267 272 276 290 301 306 310 320 326 325 327 329 332 336 337 331 327 323 333 327 342 331 322 316
226 243 248 233 222 207 215 222 223 218 221 223 228 212 214 215 222 238 255 263 263 277 291 299 305 315 321 326 330 327 327 325 327 330 331 343 348 346 346 345 350 346 343
237 245 237 226 205 194 196 208 212 213 220 224 228 228 223 227 222 233 253 255 254 274 291 306 316 320 324 329 332 332 324 322 330 340 341 345 346 347 346 341 350 350 347
Height
11053 11053 11053 11050 11050 11048 11048 11047 11046 11046 11045 11044 11043 11042 11041 11041 11041 11041 11040 11040 11039 11038 11037 11036 11035 11034 11032 11031 11029 11028 11027 11024 11022 11018 11017 11014 11013 11012 11010 11008 11006 11004 11001
11054 11054 11054 11052 11051 11051 11049 11048 11047 11046 11045 11045 11044 11045 11043 11043 11043 11043 11043 11042 11042 11040 11039 11038 11037 11035 11034 11033 11031 11030 11029 11027 11024 11022 11020 11017 11016 11014 11013 11010 11009 11006 11004
11054 11054 11053 11053 11050 11051 11051 11050 11049 11048 11047 11047 11045 11045 11046 11045 11045 11045 11045 11045 11044 11043 11041 11039 11038 11037 11036 11035 11033 11032 11030 11029 11027 11024 11023 11021 11018 11016 11015 11012 11010 11008 11005
11053 11053 11054 11054 11053 11053 11053 11052 11050 11049 11048 11048 11047 11047 11047 11047 11047 11047 11047 11047 11046 11045 11042 11040 11039 11038 11038 11037 11034 11033 11031 11029 11029 11026 11024 11022 11021 11018 11016 11014 11012 11009 11007
11053 11054 11053 11053 11055 11056 11054 11053 11051 11051 11049 11048 11048 11049 11048 11048 11048 11047 11048 11049 11048 11046 11044 11043 11041 11040 11040 11038 11036 11034 11032 11030 11028 11028 11026 11024 11023 11021 11019 11016 11014 11011 11008
11052 11053 11053 11053 11054 11057 11056 11054 11052 11052 11050 11050 11050 11051 11050 11050 11051 11050 11050 11050 11049 11048 11046 11045 11043 11042 11041 11039 11037 11037 11034 11031 11030 11029 11026 11022 11022 11023 11022 11019 11017 11012 11008
11049 11052 11053 11053 11055 11056 11056 11057 11054 11053 11050 11048 11051 11053 11053 11053 11053 11052 11052 11051 11050 11049 11048 11047 11045 11044 11042 11041 11040 11039 11036 11033 11031 11028 11026 11022 11024 11024 11024 11022 11018 11014 11011
11047 11050 11052 11054 11055 11055 11058 11058 11058 11054 11051 11051 11052 11054 11055 11055 11055 11055 11054 11053 11052 11051 11049 11048 11047 11045 11043 11043 11042 11041 11037 11034 11033 11030 11031 11029 11028 11027 11025 11023 11020 11017 11014
11045 11049 11051 11054 11054 11056 11059 11059 11059 11056 11055 11055 11054 11055 11057 11056 11057 11057 11056 11055 11054 11052 11051 11050 11048 11046 11045 11044 11044 11042 11039 11037 11035 11032 11032 11031 11030 11028 11028 11027 11023 11019 11016
11043 11046 11049 11052 11051 11055 11059 11060 11059 11058 11056 11055 11056 11057 11059 11059 11059 11059 11058 11058 11055 11054 11052 11051 11050 11048 11047 11046 11046 11045 11043 11040 11039 11037 11035 11033 11032 11030 11029 11027 11024 11021 11018
11040 11043 11046 11048 11049 11051 11054 11058 11058 11057 11057 11056 11056 11058 11061 11061 11060 11061 11061 11060 11058 11056 11055 11053 11051 11050 11049 11048 11047 11047 11046 11043 11040 11039 11038 11036 11034 11032 11030 11029 11026 11023 11019
11035 11039 11042 11045 11049 11050 11052 11055 11056 11057 11056 11056 11057 11058 11062 11062 11063 11063 11063 11062 11061 11058 11057 11055 11053 11052 11051 11049 11048 11047 11045 11043 11041 11039 11039 11037 11036 11035 11031 11029 11026 11024 11019
11029 11034 11036 11041 11045 11048 11050 11052 11054 11056 11056 11056 11057 11059 11061 11063 11064 11065 11064 11064 11063 11061 11059 11058 11056 11055 11054 11052 11050 11049 11047 11046 11044 11043 11041 11039 11036 11032 11029 11027 11023 11021 11018
11023 11026 11032 11035 11039 11044 11047 11049 11052 11053 11054 11054 11058 11059 11062 11063 11065 11066 11066 11065 11064 11063 11062 11061 11059 11057 11055 11053 11052 11052 11049 11048 11047 11045 11043 11039 11034 11030 11026 11024 11022 11018 11017
11015 11020 11026 11029 11033 11039 11043 11047 11049 11050 11051 11053 11056 11058 11061 11062 11065 11067 11067 11066 11065 11064 11064 11062 11061 11059 11056 11054 11053 11053 11052 11051 11050 11047 11043 11039 11035 11031 11028 11024 11021 11020 11017
11007 11013 11018 11022 11027 11033 11037 11041 11044 11048 11050 11052 11054 11057 11060 11061 11064 11065 11066 11067 11066 11065 11064 11063 11062 11059 11057 11055 11054 11053 11053 11052 11048 11045 11041 11036 11033 11031 11026 11022 11020 11017 11015
10999 11005 11010 11016 11021 11027 11032 11036 11040 11044 11047 11050 11052 11056 11059 11060 11063 11064 11066 11067 11066 11066 11065 11063 11061 11059 11058 11056 11056 11053 11050 11046 11045 11036 11032 11031 11032 11031 11025 11021 11016 11014 11010
10991 10996 11002 11009 11015 11021 11026 11031 11035 11040 11043 11047 11051 11054 11058 11059 11061 11063 11065 11066 11066 11066 11065 11063 11061 11059 11058 11058 11057 11052 11046 11046 11040 11033 11024 11030 11029 11028 11025 11018 11013 11008 11001
10983 10987 10994 11000 11007 11014 11019 11026 11030 11035 11040 11045 11049 11053 11056 11057 11059 11062 11064 11066 11065 11065 11065 11063 11061 11059 11058 11057 11056 11052 11049 11045 11045 11042 11039 11034 11031 11026 11020 11014 11010 11004 10999
10978 10982 10987 10992 10999 11005 11011 11019 11025 11031 11035 11041 11046 11050 11053 11055 11057 11060 11062 11064 11064 11064 11064 11062 11060 11058 11056 11056 11055 11054 11053 11060 11047 11046 11039 11034 11028 11021 11014 11007 11004 10993 10988
10975 10977 10980 10985 10990 10997 11004 11012 11020 11026 11030 11036 11042 11047 11050 11052 11055 11057 11060 11062 11063 11063 11062 11061 11060 11057 11054 11053 11051 11052 11050 11048 11045 11039 11036 11027 11021 11015 11009 11002 10999 10990 10981
10974 10975 10976 10978 10982 10989 10996 11004 11013 11019 11024 11030 11038 11043 11047 11050 11052 11055 11058 11060 11061 11061 11061 11059 11058 11056 11052 11049 11047 11045 11044 11041 11038 11031 11025 11021 11011 11007 11001 10996 10990 10983 10974
10972 10973 10972 10973 10976 10981 10989 10996 11004 11011 11018 11024 11030 11037 11043 11046 11049 11053 11056 11059 11059 11059 11059 11057 11055 11054 11052 11048 11043 11040 11036 11033 11029 11025 11020 11014 11007 11000 10995 10990 10984 10977 10971
10971 10972 10971 10971 10972 10977 10983 10989 10995 11003 11010 11018 11024 11031 11039 11041 11046 11050 11054 11056 11057 11058 11057 11055 11053 11051 11048 11046 11041 11036 11032 11027 11023 11019 11013 11005 11000 10994 10987 10982 10975 10969 10963
10970 10971 10971 10971 10971 10976 10979 10985 10990 10999 11007 11012 11019 11027 11034 11038 11044 11048 11052 11054 11055 11055 11053 11052 11050 11048 11046 11042 11038 11034 11030 11025 11018 11013 11006 11001 10996 10990 10983 10977 10969 10964 10957
10969 10970 10971 10971 10971 10974 10976 10982 10987 10994 10999 11006 11011 11019 11028 11033 11040 11044 11050 11052 11052 11052 11051 11050 11047 11045 11044 11040 11036 11031 11027 11022 11015 11009 11004 11000 10995 10988 10981 10975 10968 10960 10954